Henderson, KY

2:44 PM CST on November 12, 2019 (GMT -0600)
Henderson City-County

Weather History for KEHR - September, 2019

Change the Weather History Date:

Monday, September 23, 2019

  Actual Average Record
Temperature  
Mean Temperature 68 °F -  
Max Temperature 82 °F 77 °F 96 °F (2010)
Min Temperature 55 °F 55 °F 35 °F (1983)
Cooling Degree Days 4    
Growing Degree Days 18 (Base 50)    
Moisture  
Dew Point 63 °F    
Average Humidity 73    
Maximum Humidity 93    
Minimum Humidity 39    
Precipitation  
Precipitation 0.00 in - - ()
Sea Level Pressure  
Sea Level Pressure 30.02 in    
Wind  
Wind Speed 7 mph (WNW)    
Max Wind Speed 13 mph    
Max Gust Speed 21 mph    
Visibility 10 miles    
Events Rain    
Averages and records for this station are not official NWS values.
T = Trace of Precipitation, MM = Missing Value Source: NWS Daily Summary

Daily Weather History Graph

Daily Weather History Graph

Search for Another Location

Airport or City:

Astronomy

Sep. 23, 2019 Rise Set
Actual Time 6:39 AM CDT 6:46 PM CDT
Civil Twilight 6:12 AM CDT 7:12 PM CDT
Nautical Twilight 5:42 AM CDT 7:43 PM CDT
Astronomical Twilight 5:11 AM CDT 8:14 PM CDT
Moon 12:28 AM CDT (9/23) 3:33 PM CDT (9/23)
Length of Visible Light 12h 59m
Length of Day
12h 07m
Waning Crescent, 33% of the Moon is Illuminated
Sep 23
Waning Crescent
Sep 28
New
Oct 5
First Quarter
Oct 13
Full
Oct 21
Last Quarter

Hourly Weather History & Observations

Time (CDT) Temp. Heat Index Dew Point Humidity Pressure Visibility Wind Dir Wind Speed Gust Speed Precip Events Conditions
12:56 AM 70.0 °F - 68.0 °F 93% 30.01 in 10.0 mi East 4.6 mph - 0.00 in   Scattered Clouds
1:56 AM 70.0 °F - 68.0 °F 93% 30.01 in 10.0 mi South 5.8 mph - 0.00 in   Scattered Clouds
2:56 AM 71.1 °F - 68.0 °F 90% 29.98 in 9.0 mi SSW 8.1 mph - 0.00 in Rain Light Rain
3:56 AM 71.1 °F - 68.0 °F 90% 29.97 in 10.0 mi North - - 0.00 in   Mostly Cloudy
4:56 AM 71.1 °F - 66.9 °F 87% 29.96 in 10.0 mi SSW 9.2 mph - N/A   Mostly Cloudy
5:56 AM 71.1 °F - 66.9 °F 87% 29.98 in 10.0 mi SW 8.1 mph - 0.00 in   Mostly Cloudy
6:56 AM 69.1 °F - 66.9 °F 93% 29.99 in 10.0 mi SW 4.6 mph - N/A   Scattered Clouds
7:56 AM 72.0 °F - 68.0 °F 87% 30.00 in 10.0 mi WSW 5.8 mph - N/A   Overcast
8:56 AM 73.0 °F - 69.1 °F 87% 30.02 in 10.0 mi West 4.6 mph - N/A   Overcast
9:31 AM 75.2 °F - 69.8 °F 83% 30.03 in 10.0 mi West 8.1 mph - N/A   Overcast
9:56 AM 75.9 °F - 70.0 °F 82% 30.02 in 10.0 mi WNW 9.2 mph - N/A   Overcast
10:18 AM 78.8 °F - 71.6 °F 78% 30.03 in 10.0 mi WNW 10.4 mph - N/A   Overcast
10:44 AM 80.6 °F 84.6 °F 71.6 °F 74% 30.03 in 10.0 mi West 11.5 mph - N/A   Mostly Cloudy
10:56 AM 77.0 °F - 69.1 °F 76% 30.03 in 10.0 mi NW 9.2 mph - N/A   Mostly Cloudy
11:56 AM 80.1 °F 82.3 °F 66.9 °F 64% 30.04 in 10.0 mi NNW 12.7 mph 20.7 mph N/A   Overcast
12:11 PM 78.8 °F - 66.2 °F 65% 30.05 in 10.0 mi NW 11.5 mph 20.7 mph N/A   Overcast
12:56 PM 77.0 °F - 66.0 °F 69% 30.05 in 10.0 mi NW 12.7 mph - N/A   Overcast
1:23 PM 80.6 °F 82.3 °F 64.4 °F 58% 30.05 in 10.0 mi NW 12.7 mph 17.3 mph N/A   Scattered Clouds
1:56 PM 82.0 °F 83.1 °F 63.0 °F 52% 30.03 in 10.0 mi WNW 11.5 mph 16.1 mph N/A   Partly Cloudy
2:56 PM 82.9 °F 82.6 °F 57.9 °F 42% 30.02 in 10.0 mi WNW 8.1 mph 16.1 mph N/A   Clear
3:56 PM 82.9 °F 82.8 °F 59.0 °F 44% 30.01 in 10.0 mi NW 9.2 mph - N/A   Clear
4:56 PM 82.0 °F 81.4 °F 55.0 °F 39% 30.02 in 10.0 mi NW 11.5 mph - N/A   Clear
5:56 PM 79.0 °F - 55.9 °F 45% 30.02 in 10.0 mi NW 6.9 mph - N/A   Clear
6:56 PM 72.0 °F - 54.0 °F 53% 30.03 in 10.0 mi NW 4.6 mph - N/A   Clear
7:56 PM 68.0 °F - 54.0 °F 61% 30.04 in 10.0 mi NNW 5.8 mph - N/A   Clear
8:56 PM 64.9 °F - 54.0 °F 68% 30.04 in 10.0 mi NW 4.6 mph - N/A   Clear
9:56 PM 55.9 °F - 52.0 °F 87% 30.04 in 10.0 mi Calm Calm - N/A   Clear
10:56 PM 55.9 °F - 53.1 °F 90% 30.05 in 10.0 mi NW 3.5 mph - N/A   Clear
11:56 PM 55.0 °F - 51.1 °F 86% 30.05 in 10.0 mi SW 3.5 mph - N/A   Clear